QPF
0.00 0.00 0.00 0.00 0.00 0.01 0.01 0.01 0.00 0.00 0.00 0.00 0.00 0.00 0.00 0.00 0.00 0.01 0.02 0.02 0.03 0.03 0.04 0.04 0.04 0.06 0.10 0.16 0.17 0.18 0.20 0.19 0.15 0.11 0.09 0.08 0.06 0.06 0.08 0.10 0.12 0.11 0.09 0.08
0.00 0.00 0.00 0.00 0.00 0.00 0.01 0.01 0.01 0.00 0.00 0.01 0.01 0.01 0.00 0.00 0.00 0.01 0.02 0.03 0.03 0.04 0.04 0.04 0.05 0.08 0.11 0.16 0.20 0.26 0.32 0.29 0.19 0.14 0.11 0.10 0.09 0.09 0.09 0.10 0.12 0.10 0.09 0.09
0.00 0.00 0.00 0.00 0.00 0.01 0.01 0.00 0.01 0.01 0.01 0.01 0.01 0.01 0.01 0.01 0.01 0.01 0.03 0.04 0.04 0.05 0.05 0.08 0.09 0.11 0.12 0.14 0.18 0.23 0.25 0.23 0.20 0.18 0.16 0.15 0.14 0.13 0.10 0.08 0.08 0.08 0.09 0.10
0.00 0.00 0.00 0.00 0.00 0.01 0.01 0.01 0.01 0.01 0.01 0.01 0.02 0.03 0.04 0.05 0.05 0.04 0.04 0.04 0.05 0.06 0.06 0.08 0.11 0.11 0.12 0.13 0.14 0.16 0.16 0.17 0.16 0.15 0.14 0.12 0.09 0.07 0.05 0.04 0.04 0.04 0.05 0.06
0.00 0.00 0.00 0.00 0.01 0.01 0.01 0.02 0.03 0.03 0.02 0.02 0.04 0.06 0.07 0.07 0.10 0.08 0.06 0.05 0.05 0.05 0.06 0.07 0.08 0.08 0.08 0.08 0.10 0.10 0.10 0.10 0.08 0.07 0.06 0.05 0.04 0.03 0.03 0.03 0.03 0.03 0.03 0.04
0.01 0.01 0.01 0.01 0.01 0.01 0.02 0.03 0.04 0.05 0.04 0.06 0.08 0.09 0.09 0.09 0.08 0.08 0.06 0.05 0.04 0.04 0.04 0.04 0.04 0.04 0.05 0.05 0.06 0.06 0.05 0.04 0.03 0.02 0.02 0.01 0.01 0.01 0.01 0.01 0.01 0.01 0.01 0.01
0.01 0.01 0.01 0.03 0.03 0.03 0.05 0.04 0.08 0.12 0.15 0.17 0.18 0.16 0.14 0.12 0.10 0.07 0.05 0.04 0.03 0.03 0.03 0.03 0.03 0.03 0.03 0.02 0.02 0.01 0.01 0.01 0.01 0.01 0.01 0.01 0.01 0.00 0.01 0.01 0.01 0.02 0.01 0.01
0.02 0.03 0.04 0.04 0.04 0.05 0.06 0.07 0.09 0.17 0.26 0.25 0.24 0.22 0.20 0.16 0.11 0.08 0.05 0.03 0.02 0.02 0.02 0.02 0.02 0.01 0.01 0.01 0.01 0.01 0.00 0.00 0.00 0.00 0.00 0.00 0.00 0.00 0.00 0.01 0.01 0.01 0.01 0.01
0.05 0.05 0.05 0.05 0.05 0.06 0.09 0.11 0.13 0.18 0.27 0.32 0.28 0.23 0.18 0.14 0.10 0.07 0.05 0.03 0.02 0.01 0.01 0.01 0.01 0.01 0.00 0.00 0.00 0.00 0.00 0.00 0.00 0.00 0.00 0.00 0.00 0.00 0.00 0.00 0.00 0.00 0.00 0.00
0.08 0.08 0.06 0.07 0.09 0.09 0.12 0.15 0.18 0.22 0.26 0.27 0.25 0.21 0.15 0.09 0.05 0.03 0.02 0.02 0.01 0.01 0.01 0.00 0.00 0.00 0.00 0.00 0.00 0.00 0.00 0.00 0.00 0.00 0.00 0.00 0.00 0.00 0.00 0.00 0.00 0.00 0.00 0.00
0.06 0.07 0.07 0.09 0.12 0.14 0.15 0.17 0.20 0.24 0.27 0.23 0.18 0.16 0.12 0.08 0.05 0.03 0.01 0.01 0.01 0.00 0.00 0.00 0.00 0.00 0.00 0.00 0.00 0.00 0.00 0.00 0.00 0.00 0.00 0.00 0.00 0.00 0.00 0.00 0.00 0.00 0.00 0.00
0.12 0.12 0.13 0.15 0.17 0.17 0.17 0.18 0.22 0.24 0.23 0.19 0.15 0.13 0.10 0.06 0.04 0.02 0.02 0.01 0.01 0.00 0.00 0.00 0.00 0.00 0.00 0.00 0.00 0.00 0.00 0.00 0.00 0.00 0.00 0.00 0.00 0.00 0.00 0.00 0.00 0.00 0.00 0.00
0.14 0.18 0.19 0.20 0.20 0.21 0.18 0.20 0.22 0.21 0.20 0.14 0.10 0.08 0.06 0.05 0.03 0.03 0.02 0.01 0.01 0.00 0.00 0.00 0.00 0.00 0.00 0.00 0.00 0.00 0.00 0.00 0.00 0.00 0.00 0.00 0.00 0.00 0.00 0.00 0.00 0.00 0.00 0.00
0.11 0.18 0.25 0.24 0.23 0.21 0.15 0.13 0.13 0.12 0.12 0.10 0.08 0.05 0.02 0.01 0.01 0.01 0.00 0.00 0.00 0.00 0.00 0.00 0.00 0.00 0.00 0.00 0.00 0.00 0.00 0.00 0.00 0.00 0.00 0.00 0.00 0.00 0.00 0.00 0.00 0.00 0.00 0.00
0.11 0.13 0.14 0.15 0.16 0.15 0.12 0.09 0.08 0.07 0.06 0.05 0.03 0.02 0.01 0.00 0.00 0.00 0.00 0.00 0.00 0.00 0.00 0.00 0.00 0.00 0.00 0.00 0.00 0.00 0.00 0.00 0.00 0.00 0.00 0.00 0.00 0.00 0.00 0.00 0.00 0.00 0.00 0.00
0.09 0.08 0.08 0.08 0.08 0.08 0.07 0.07 0.05 0.04 0.03 0.02 0.01 0.01 0.00 0.00 0.00 0.00 0.00 0.00 0.00 0.00 0.00 0.00 0.00 0.00 0.00 0.00 0.00 0.00 0.00 0.00 0.00 0.00 0.00 0.00 0.00 0.00 0.00 0.00 0.00 0.00 0.00 0.00
0.09 0.08 0.06 0.04 0.04 0.04 0.04 0.04 0.03 0.01 0.01 0.01 0.01 0.01 0.00 0.00 0.00 0.00 0.00 0.00 0.00 0.00 0.00 0.00 0.00 0.00 0.00 0.00 0.00 0.00 0.00 0.00 0.00 0.00 0.00 0.00 0.00 0.00 0.00 0.00 0.00 0.00 0.00 0.00
0.07 0.05 0.04 0.03 0.02 0.02 0.02 0.01 0.01 0.00 0.00 0.00 0.00 0.00 0.00 0.00 0.00 0.00 0.00 0.00 0.00 0.00 0.00 0.00 0.00 0.00 0.00 0.00 0.00 0.00 0.00 0.00 0.00 0.00 0.00 0.00 0.00 0.00 0.00 0.00 0.00 0.00 0.00 0.00
0.05 0.03 0.03 0.02 0.02 0.02 0.01 0.00 0.00 0.00 0.00 0.00 0.00 0.00 0.00 0.00 0.00 0.00 0.00 0.00 0.00 0.00 0.00 0.00 0.00 0.00 0.00 0.00 0.00 0.00 0.00 0.00 0.00 0.00 0.00 0.00 0.00 0.00 0.00 0.00 0.00 0.00 0.00 0.00
0.03 0.02 0.02 0.02 0.01 0.01 0.00 0.00 0.00 0.00 0.00 0.00 0.00 0.00 0.00 0.00 0.00 0.00 0.00 0.00 0.00 0.00 0.00 0.00 0.00 0.00 0.00 0.00 0.00 0.00 0.00 0.00 0.00 0.00 0.00 0.00 0.00 0.00 0.00 0.00 0.00 0.00 0.00 0.00
0.04 0.03 0.01 0.01 0.01 0.00 0.00 0.00 0.00 0.00 0.00 0.00 0.00 0.00 0.00 0.00 0.01 0.01 0.01 0.01 0.01 0.00 0.00 0.00 0.00 0.00 0.00 0.00 0.00 0.00 0.00 0.00 0.00 0.00 0.00 0.00 0.00 0.00 0.00 0.00 0.00 0.00 0.00 0.00
0.06 0.05 0.04 0.02 0.02 0.01 0.00 0.00 0.00 0.01 0.01 0.01 0.01 0.01 0.01 0.01 0.01 0.01 0.01 0.01 0.00 0.00 0.00 0.00 0.00 0.00 0.00 0.01 0.01 0.01 0.01 0.01 0.01 0.00 0.00 0.00 0.00 0.00 0.00 0.00 0.00 0.00 0.00 0.00
0.03 0.02 0.02 0.02 0.01 0.01 0.00 0.00 0.00 0.01 0.01 0.01 0.01 0.01 0.01 0.01 0.01 0.00 0.00 0.00 0.00 0.00 0.00 0.00 0.00 0.00 0.00 0.00 0.00 0.00 0.00 0.00 0.00 0.00 0.00 0.00 0.00 0.00 0.00 0.00 0.00 0.00 0.00 0.00
0.02 0.02 0.01 0.01 0.01 0.00 0.00 0.00 0.00 0.00 0.01 0.01 0.01 0.01 0.01 0.01 0.00 0.00 0.00 0.00 0.00 0.00 0.00 0.00 0.00 0.00 0.00 0.00 0.00 0.00 0.00 0.00 0.00 0.00 0.00 0.00 0.00 0.00 0.00 0.00 0.00 0.00 0.00 0.00
0.01 0.01 0.01 0.00 0.00 0.01 0.00 0.00 0.00 0.00 0.00 0.00 0.00 0.00 0.00 0.00 0.00 0.00 0.00 0.00 0.00 0.00 0.00 0.00 0.00 0.00 0.00 0.00 0.00 0.00 0.00 0.00 0.00 0.00 0.00 0.00 0.00 0.00 0.00 0.00 0.00 0.00 0.00 0.00
0.00 0.00 0.00 0.00 0.00 0.00 0.00 0.00 0.01 0.00 0.00 0.00 0.00 0.01 0.01 0.00 0.00 0.00 0.00 0.00 0.00 0.00 0.00 0.00 0.00 0.00 0.00 0.00 0.00 0.00 0.00 0.01 0.00 0.00 0.00 0.00 0.00 0.00 0.00 0.00 0.00 0.00 0.00 0.00
0.00 0.00 0.01 0.01 0.01 0.00 0.00 0.00 0.01 0.01 0.01 0.01 0.01 0.00 0.00 0.00 0.00 0.00 0.00 0.00 0.00 0.00 0.00 0.00 0.00 0.00 0.00 0.00 0.00 0.00 0.00 0.00 0.00 0.00 0.00 0.00 0.00 0.00 0.00 0.00 0.00 0.00 0.00 0.00
MSLP
1010.71 1010.85 1011.01 1011.17 1011.29 1011.31 1011.19 1010.90 1010.42 1009.78 1009.04 1008.27 1007.58 1007.06 1006.78 1006.77 1007.03 1007.54 1008.22 1008.99 1009.78 1010.51 1011.15 1011.67 1012.08 1012.42 1012.71 1013.00 1013.31 1013.65 1014.02 1014.39 1014.75 1015.07 1015.32 1015.50 1015.61 1015.66 1015.67 1015.65 1015.62 1015.60 1015.60 1015.63
1011.13 1011.16 1011.13 1011.05 1010.91 1010.67 1010.32 1009.87 1009.31 1008.68 1008.03 1007.42 1006.92 1006.60 1006.48 1006.60 1006.93 1007.45 1008.09 1008.81 1009.54 1010.22 1010.84 1011.37 1011.84 1012.25 1012.63 1013.02 1013.40 1013.80 1014.20 1014.58 1014.92 1015.22 1015.44 1015.60 1015.70 1015.75 1015.75 1015.74 1015.71 1015.68 1015.67 1015.68
1011.56 1011.46 1011.25 1010.95 1010.56 1010.09 1009.56 1008.97 1008.36 1007.76 1007.20 1006.74 1006.43 1006.28 1006.32 1006.55 1006.94 1007.47 1008.09 1008.75 1009.42 1010.06 1010.66 1011.21 1011.73 1012.22 1012.69 1013.15 1013.61 1014.06 1014.48 1014.86 1015.19 1015.46 1015.66 1015.80 1015.90 1015.95 1015.98 1015.99 1015.99 1015.99 1015.99 1016.00
1011.95 1011.70 1011.32 1010.83 1010.23 1009.58 1008.90 1008.21 1007.58 1007.01 1006.56 1006.25 1006.10 1006.12 1006.31 1006.65 1007.10 1007.65 1008.26 1008.89 1009.52 1010.13 1010.72 1011.30 1011.86 1012.41 1012.95 1013.48 1013.98 1014.46 1014.89 1015.26 1015.56 1015.80 1015.98 1016.11 1016.21 1016.29 1016.35 1016.41 1016.47 1016.52 1016.57 1016.60
1012.20 1011.82 1011.28 1010.62 1009.87 1009.08 1008.30 1007.56 1006.93 1006.42 1006.08 1005.91 1005.92 1006.11 1006.43 1006.88 1007.42 1008.01 1008.62 1009.25 1009.87 1010.47 1011.07 1011.67 1012.26 1012.86 1013.44 1014.01 1014.54 1015.02 1015.44 1015.78 1016.05 1016.26 1016.42 1016.54 1016.65 1016.76 1016.88 1017.00 1017.12 1017.24 1017.34 1017.42
1012.24 1011.72 1011.06 1010.27 1009.42 1008.55 1007.72 1006.98 1006.38 1005.96 1005.73 1005.71 1005.88 1006.21 1006.68 1007.25 1007.87 1008.53 1009.18 1009.83 1010.46 1011.08 1011.70 1012.32 1012.93 1013.55 1014.16 1014.73 1015.26 1015.72 1016.11 1016.42 1016.65 1016.83 1016.97 1017.09 1017.22 1017.36 1017.53 1017.72 1017.91 1018.09 1018.24 1018.36
1012.01 1011.38 1010.62 1009.76 1008.86 1007.97 1007.15 1006.45 1005.93 1005.61 1005.51 1005.63 1005.95 1006.43 1007.04 1007.72 1008.45 1009.18 1009.90 1010.60 1011.26 1011.91 1012.55 1013.18 1013.81 1014.43 1015.03 1015.59 1016.09 1016.52 1016.87 1017.15 1017.35 1017.50 1017.62 1017.75 1017.90 1018.07 1018.29 1018.52 1018.77 1019.00 1019.19 1019.33
1011.52 1010.81 1009.99 1009.12 1008.22 1007.37 1006.61 1006.00 1005.59 1005.39 1005.42 1005.68 1006.14 1006.76 1007.49 1008.29 1009.12 1009.94 1010.73 1011.48 1012.19 1012.87 1013.53 1014.17 1014.79 1015.40 1015.98 1016.51 1016.98 1017.37 1017.69 1017.93 1018.11 1018.25 1018.37 1018.50 1018.67 1018.87 1019.11 1019.38 1019.65 1019.90 1020.11 1020.26
1010.82 1010.08 1009.26 1008.42 1007.59 1006.83 1006.18 1005.69 1005.41 1005.34 1005.51 1005.89 1006.47 1007.20 1008.05 1008.94 1009.86 1010.76 1011.61 1012.42 1013.17 1013.87 1014.54 1015.18 1015.79 1016.37 1016.92 1017.41 1017.85 1018.21 1018.51 1018.73 1018.90 1019.05 1019.18 1019.32 1019.50 1019.71 1019.96 1020.23 1020.49 1020.74 1020.93 1021.06
1010.04 1009.32 1008.56 1007.81 1007.10 1006.46 1005.96 1005.61 1005.46 1005.53 1005.81 1006.30 1006.97 1007.79 1008.70 1009.67 1010.65 1011.60 1012.50 1013.34 1014.12 1014.84 1015.50 1016.13 1016.72 1017.27 1017.78 1018.24 1018.65 1019.00 1019.29 1019.52 1019.70 1019.86 1020.01 1020.18 1020.36 1020.57 1020.80 1021.03 1021.27 1021.47 1021.61 1021.69
1009.34 1008.69 1008.04 1007.42 1006.86 1006.39 1006.04 1005.84 1005.82 1006.00 1006.37 1006.93 1007.66 1008.52 1009.47 1010.47 1011.47 1012.44 1013.36 1014.22 1015.00 1015.71 1016.37 1016.97 1017.53 1018.05 1018.53 1018.97 1019.36 1019.71 1020.01 1020.26 1020.48 1020.67 1020.84 1021.02 1021.20 1021.39 1021.58 1021.77 1021.94 1022.07 1022.15 1022.16
1008.86 1008.33 1007.83 1007.37 1006.98 1006.67 1006.48 1006.42 1006.52 1006.78 1007.21 1007.80 1008.54 1009.40 1010.34 1011.32 1012.31 1013.27 1014.18 1015.02 1015.79 1016.48 1017.11 1017.68 1018.21 1018.70 1019.15 1019.58 1019.97 1020.33 1020.65 1020.94 1021.20 1021.43 1021.63 1021.81 1021.99 1022.14 1022.29 1022.41 1022.49 1022.54 1022.54 1022.48
1008.69 1008.32 1007.98 1007.70 1007.47 1007.33 1007.28 1007.33 1007.51 1007.82 1008.28 1008.87 1009.58 1010.40 1011.30 1012.23 1013.17 1014.09 1014.97 1015.77 1016.51 1017.17 1017.76 1018.30 1018.79 1019.25 1019.69 1020.10 1020.50 1020.88 1021.23 1021.56 1021.85 1022.11 1022.34 1022.53 1022.69 1022.81 1022.90 1022.94 1022.94 1022.90 1022.82 1022.70
1008.85 1008.64 1008.47 1008.35 1008.29 1008.29 1008.35 1008.49 1008.72 1009.06 1009.50 1010.06 1010.73 1011.48 1012.31 1013.17 1014.05 1014.91 1015.73 1016.49 1017.18 1017.80 1018.36 1018.86 1019.33 1019.76 1020.18 1020.58 1020.98 1021.37 1021.75 1022.10 1022.43 1022.71 1022.96 1023.15 1023.29 1023.37 1023.40 1023.37 1023.30 1023.19 1023.04 1022.85
1009.29 1009.23 1009.22 1009.25 1009.32 1009.43 1009.58 1009.78 1010.04 1010.38 1010.80 1011.31 1011.91 1012.60 1013.35 1014.14 1014.94 1015.74 1016.50 1017.21 1017.86 1018.44 1018.96 1019.43 1019.86 1020.26 1020.65 1021.05 1021.44 1021.83 1022.21 1022.58 1022.92 1023.22 1023.47 1023.65 1023.77 1023.81 1023.79 1023.72 1023.59 1023.41 1023.21 1022.99
1009.91 1009.98 1010.10 1010.25 1010.42 1010.61 1010.82 1011.06 1011.34 1011.67 1012.07 1012.53 1013.08 1013.70 1014.38 1015.10 1015.85 1016.58 1017.30 1017.96 1018.57 1019.11 1019.59 1020.03 1020.42 1020.79 1021.15 1021.52 1021.89 1022.26 1022.64 1023.00 1023.33 1023.63 1023.86 1024.03 1024.13 1024.15 1024.09 1023.98 1023.81 1023.60 1023.37 1023.13
1010.59 1010.77 1010.98 1011.21 1011.46 1011.71 1011.97 1012.24 1012.53 1012.86 1013.23 1013.67 1014.18 1014.75 1015.38 1016.05 1016.75 1017.44 1018.11 1018.74 1019.31 1019.82 1020.26 1020.66 1021.02 1021.35 1021.68 1022.00 1022.34 1022.68 1023.02 1023.36 1023.67 1023.94 1024.16 1024.31 1024.38 1024.38 1024.31 1024.17 1023.99 1023.77 1023.53 1023.28
1011.26 1011.50 1011.77 1012.06 1012.36 1012.65 1012.95 1013.24 1013.55 1013.89 1014.27 1014.70 1015.19 1015.74 1016.34 1016.98 1017.64 1018.30 1018.94 1019.53 1020.07 1020.54 1020.96 1021.32 1021.64 1021.93 1022.21 1022.49 1022.78 1023.08 1023.38 1023.67 1023.94 1024.18 1024.37 1024.50 1024.55 1024.54 1024.46 1024.32 1024.14 1023.92 1023.69 1023.45
1011.86 1012.13 1012.43 1012.75 1013.08 1013.40 1013.73 1014.06 1014.41 1014.77 1015.17 1015.61 1016.11 1016.66 1017.25 1017.87 1018.50 1019.13 1019.74 1020.30 1020.80 1021.24 1021.62 1021.95 1022.23 1022.49 1022.72 1022.96 1023.20 1023.45 1023.70 1023.94 1024.17 1024.37 1024.53 1024.63 1024.68 1024.66 1024.58 1024.45 1024.27 1024.07 1023.85 1023.62
1012.38 1012.66 1012.98 1013.31 1013.66 1014.01 1014.38 1014.75 1015.13 1015.54 1015.97 1016.44 1016.96 1017.51 1018.09 1018.70 1019.31 1019.91 1020.48 1021.00 1021.47 1021.87 1022.22 1022.51 1022.76 1022.98 1023.19 1023.38 1023.58 1023.79 1023.99 1024.20 1024.39 1024.55 1024.68 1024.76 1024.79 1024.77 1024.70 1024.58 1024.42 1024.23 1024.02 1023.80
1012.88 1013.15 1013.46 1013.80 1014.16 1014.55 1014.95 1015.36 1015.79 1016.24 1016.71 1017.22 1017.75 1018.30 1018.87 1019.46 1020.03 1020.59 1021.12 1021.59 1022.02 1022.39 1022.70 1022.97 1023.20 1023.40 1023.58 1023.75 1023.93 1024.11 1024.28 1024.45 1024.61 1024.75 1024.85 1024.92 1024.94 1024.92 1024.85 1024.73 1024.59 1024.41 1024.21 1023.99
1013.38 1013.64 1013.95 1014.29 1014.67 1015.08 1015.51 1015.96 1016.43 1016.92 1017.43 1017.95 1018.49 1019.03 1019.58 1020.12 1020.65 1021.16 1021.62 1022.05 1022.43 1022.76 1023.05 1023.30 1023.52 1023.71 1023.89 1024.07 1024.24 1024.41 1024.57 1024.73 1024.87 1024.99 1025.07 1025.13 1025.14 1025.11 1025.04 1024.93 1024.79 1024.62 1024.42 1024.19
1013.93 1014.18 1014.48 1014.83 1015.22 1015.65 1016.11 1016.60 1017.10 1017.61 1018.13 1018.66 1019.18 1019.70 1020.20 1020.69 1021.16 1021.59 1022.00 1022.37 1022.70 1023.00 1023.27 1023.51 1023.73 1023.94 1024.14 1024.33 1024.52 1024.70 1024.87 1025.02 1025.16 1025.27 1025.34 1025.38 1025.38 1025.35 1025.27 1025.16 1025.02 1024.84 1024.64 1024.40
1014.53 1014.78 1015.08 1015.43 1015.84 1016.28 1016.76 1017.26 1017.78 1018.30 1018.82 1019.33 1019.82 1020.29 1020.74 1021.16 1021.55 1021.92 1022.26 1022.57 1022.86 1023.13 1023.39 1023.64 1023.88 1024.11 1024.34 1024.56 1024.78 1024.98 1025.17 1025.33 1025.46 1025.56 1025.63 1025.66 1025.64 1025.60 1025.51 1025.39 1025.24 1025.06 1024.84 1024.60
1015.16 1015.41 1015.72 1016.08 1016.49 1016.94 1017.42 1017.93 1018.45 1018.96 1019.46 1019.93 1020.38 1020.80 1021.18 1021.54 1021.86 1022.16 1022.43 1022.70 1022.95 1023.21 1023.46 1023.72 1023.98 1024.25 1024.51 1024.77 1025.02 1025.25 1025.45 1025.61 1025.75 1025.84 1025.89 1025.90 1025.87 1025.80 1025.70 1025.57 1025.40 1025.22 1024.99 1024.74
1015.77 1016.03 1016.35 1016.72 1017.13 1017.58 1018.06 1018.56 1019.06 1019.55 1020.02 1020.46 1020.87 1021.23 1021.56 1021.85 1022.11 1022.35 1022.58 1022.80 1023.03 1023.27 1023.53 1023.80 1024.08 1024.38 1024.67 1024.95 1025.22 1025.46 1025.67 1025.83 1025.95 1026.02 1026.05 1026.03 1025.97 1025.88 1025.76 1025.62 1025.44 1025.25 1025.03 1024.77
1016.31 1016.59 1016.92 1017.29 1017.70 1018.15 1018.62 1019.10 1019.59 1020.05 1020.50 1020.90 1021.27 1021.59 1021.87 1022.12 1022.34 1022.54 1022.74 1022.94 1023.15 1023.38 1023.64 1023.91 1024.20 1024.50 1024.81 1025.09 1025.36 1025.59 1025.78 1025.92 1026.01 1026.05 1026.04 1025.98 1025.90 1025.78 1025.63 1025.47 1025.29 1025.09 1024.87 1024.63
Thickness
5709 5718 5720 5720 5724 5724 5718 5717 5713 5724 5731 5749 5756 5757 5756 5755 5752 5749 5745 5742 5740 5737 5734 5732 5729 5727 5725 5722 5720 5716 5711 5707 5704 5703 5701 5700 5698 5697 5696 5695 5695 5694 5692 5690
5699 5710 5710 5710 5720 5722 5723 5724 5722 5728 5734 5754 5755 5755 5753 5751 5750 5746 5742 5740 5737 5734 5731 5729 5727 5724 5722 5719 5716 5712 5708 5703 5700 5698 5695 5694 5693 5692 5690 5689 5687 5686 5684 5682
5674 5692 5694 5688 5711 5718 5721 5727 5727 5723 5738 5746 5745 5746 5746 5745 5745 5742 5739 5736 5732 5729 5726 5724 5721 5720 5717 5715 5711 5706 5702 5697 5695 5693 5690 5688 5687 5685 5683 5680 5679 5677 5674 5671
5660 5670 5661 5693 5716 5720 5719 5724 5728 5731 5736 5738 5739 5738 5737 5738 5738 5735 5732 5728 5725 5722 5719 5716 5714 5712 5711 5708 5704 5699 5695 5691 5689 5687 5683 5680 5678 5675 5673 5670 5668 5665 5662 5659
5647 5649 5663 5688 5702 5704 5702 5707 5722 5722 5725 5727 5728 5727 5722 5726 5728 5726 5722 5718 5715 5713 5710 5706 5704 5703 5701 5697 5694 5690 5685 5682 5680 5678 5675 5672 5668 5665 5662 5659 5655 5652 5649 5645
5641 5644 5648 5676 5695 5700 5695 5690 5713 5716 5716 5717 5719 5712 5711 5713 5715 5712 5709 5705 5702 5701 5698 5695 5692 5692 5690 5685 5682 5677 5674 5672 5670 5668 5664 5660 5656 5653 5650 5647 5643 5639 5634 5629
5637 5638 5652 5676 5685 5687 5672 5684 5702 5706 5708 5709 5708 5709 5704 5702 5700 5698 5695 5691 5689 5688 5686 5682 5681 5681 5676 5672 5667 5665 5663 5661 5658 5655 5652 5648 5644 5640 5637 5633 5629 5624 5619 5615
5632 5632 5645 5671 5673 5670 5674 5683 5690 5694 5697 5695 5695 5694 5691 5688 5685 5683 5680 5676 5675 5675 5672 5669 5669 5669 5663 5657 5654 5654 5652 5648 5645 5642 5640 5635 5631 5626 5623 5619 5615 5609 5605 5601
5638 5644 5658 5664 5665 5671 5673 5676 5680 5683 5686 5686 5683 5680 5677 5675 5672 5669 5666 5664 5662 5662 5659 5657 5655 5655 5650 5645 5644 5643 5639 5635 5631 5628 5624 5621 5617 5613 5608 5603 5600 5595 5591 5586
5639 5650 5656 5661 5666 5669 5672 5673 5675 5676 5677 5677 5673 5668 5664 5663 5660 5657 5655 5652 5650 5650 5647 5643 5641 5640 5637 5634 5633 5631 5625 5620 5617 5613 5609 5605 5602 5598 5594 5589 5585 5581 5576 5572
5639 5648 5654 5659 5660 5664 5667 5668 5668 5666 5666 5664 5662 5657 5654 5651 5648 5647 5644 5640 5640 5638 5634 5629 5628 5626 5624 5622 5621 5616 5611 5607 5603 5599 5595 5590 5586 5581 5578 5574 5570 5566 5561 5557
5639 5647 5647 5650 5655 5660 5660 5659 5658 5656 5653 5651 5651 5647 5643 5640 5639 5637 5634 5630 5628 5625 5622 5618 5616 5614 5611 5610 5608 5604 5598 5593 5589 5585 5581 5576 5571 5565 5560 5557 5554 5550 5545 5540
5643 5647 5647 5648 5651 5653 5652 5651 5650 5648 5646 5641 5638 5636 5634 5631 5629 5626 5623 5621 5619 5615 5611 5608 5605 5602 5599 5597 5595 5591 5586 5580 5576 5572 5567 5562 5557 5553 5546 5541 5536 5532 5527 5523
5642 5644 5642 5643 5643 5644 5643 5642 5641 5638 5636 5634 5629 5627 5625 5623 5620 5618 5614 5612 5609 5605 5600 5597 5594 5590 5587 5585 5582 5577 5573 5569 5563 5557 5553 5548 5542 5537 5532 5527 5521 5514 5509 5504
5638 5640 5637 5636 5636 5635 5635 5634 5632 5628 5626 5623 5621 5619 5618 5615 5612 5608 5605 5602 5598 5593 5589 5586 5582 5577 5574 5572 5569 5564 5560 5554 5548 5543 5538 5532 5526 5520 5515 5509 5503 5496 5491 5486
5632 5633 5632 5631 5629 5628 5627 5627 5624 5621 5619 5616 5613 5611 5609 5607 5602 5598 5594 5592 5587 5581 5577 5574 5570 5565 5563 5560 5556 5551 5546 5541 5535 5528 5522 5516 5510 5504 5497 5491 5485 5479 5474 5469
5627 5625 5624 5623 5622 5620 5620 5620 5618 5615 5612 5609 5606 5604 5601 5597 5592 5586 5582 5579 5575 5570 5566 5563 5558 5555 5551 5547 5543 5537 5531 5526 5520 5512 5506 5499 5493 5486 5480 5474 5468 5462 5457 5452
5625 5622 5621 5619 5618 5616 5613 5612 5611 5608 5605 5602 5599 5596 5592 5587 5581 5575 5570 5567 5562 5557 5553 5550 5546 5542 5537 5533 5528 5522 5515 5509 5502 5496 5489 5482 5475 5469 5463 5457 5452 5447 5442 5438
5617 5616 5614 5613 5612 5610 5607 5604 5602 5599 5596 5594 5590 5585 5581 5575 5570 5564 5560 5556 5551 5545 5538 5536 5532 5528 5523 5518 5512 5506 5500 5493 5486 5479 5472 5466 5460 5454 5448 5443 5438 5433 5429 5425
5608 5607 5606 5604 5603 5601 5598 5595 5592 5589 5586 5583 5579 5573 5568 5562 5558 5554 5549 5542 5537 5532 5527 5523 5519 5514 5508 5503 5497 5491 5484 5477 5470 5464 5458 5452 5446 5441 5435 5430 5426 5422 5418 5414
5599 5598 5597 5595 5592 5590 5588 5586 5584 5579 5575 5573 5569 5564 5557 5551 5547 5543 5538 5530 5522 5519 5515 5511 5506 5500 5495 5489 5483 5477 5470 5463 5457 5451 5445 5439 5434 5429 5424 5419 5415 5410 5407 5404
5589 5588 5586 5585 5582 5579 5577 5576 5574 5570 5566 5562 5557 5552 5546 5539 5534 5529 5524 5518 5512 5508 5503 5498 5493 5488 5482 5476 5470 5463 5457 5451 5445 5439 5433 5427 5422 5417 5412 5408 5404 5400 5397 5394
5580 5579 5577 5574 5572 5568 5566 5565 5562 5559 5555 5551 5546 5541 5535 5529 5524 5520 5512 5505 5501 5497 5492 5486 5481 5476 5470 5464 5458 5452 5446 5440 5434 5428 5422 5417 5412 5407 5402 5398 5394 5391 5388 5385
5571 5569 5567 5564 5563 5560 5556 5552 5550 5547 5544 5539 5535 5530 5524 5518 5511 5507 5503 5497 5491 5486 5480 5475 5471 5465 5459 5453 5447 5441 5435 5429 5423 5417 5412 5407 5402 5398 5393 5389 5386 5383 5380 5378
5561 5559 5558 5556 5553 5549 5545 5541 5538 5534 5531 5526 5521 5517 5513 5509 5504 5497 5492 5486 5481 5476 5470 5465 5461 5455 5449 5443 5437 5431 5425 5419 5414 5409 5404 5399 5394 5390 5386 5383 5379 5377 5374 5372
5551 5549 5547 5545 5543 5539 5536 5533 5528 5524 5520 5516 5510 5505 5501 5496 5492 5486 5481 5476 5471 5466 5461 5456 5451 5446 5440 5434 5428 5422 5417 5412 5407 5402 5397 5392 5388 5385 5381 5378 5375 5372 5370 5367
5541 5539 5537 5534 5531 5529 5527 5523 5519 5515 5511 5507 5501 5495 5490 5486 5481 5476 5471 5466 5461 5457 5452 5447 5442 5437 5431 5426 5420 5415 5410 5406 5401 5396 5392 5388 5384 5381 5377 5374 5371 5369 5366 5364